Location: *
(51.8167°N, 12.5000°E)
Time: 20:54:41
(UTC+00:00)

ATLAS 2AS CENTAUR R/B - Pass Details

Date: 16 September 2019
Orbit: 919 x 1292 km, 63.6° (Epoch: 21 September)

Event Time Altitude Azimuth Distance (km) Brightness Sun altitude
Rises 18:19:16 0° 314° (NW) 4,242 7.1 -9.3°
Reaches altitude 10° 18:22:09 10° 314° (NW) 3,241 6.3 -9.8°
Maximum altitude 18:29:59 82° 229° (SW) 1,205 3.0 -10.9°
Drops below altitude 10° 18:37:10 10° 143° (SE) 2,976 4.5 -12.0°
Enters shadow 18:37:25 - 143° (SE) 3,061 4.6 -12.0°
